Westfield, MA

1:50 PM EDT on May 27, 2017 (GMT -0400)
Barnes Municipal

Weather History for KBAF - October, 2012

Change the Weather History Date:

Monday, October 8, 2012

  Actual Average Record
Temperature  
Mean Temperature 45 °F -  
Max Temperature 55 °F 62 °F 79 °F (2007)
Min Temperature 35 °F 40 °F 26 °F (1999)
Degree Days  
Heating Degree Days 20    
Moisture  
Dew Point 39 °F    
Average Humidity 86    
Maximum Humidity 100    
Minimum Humidity 55    
Precipitation  
Precipitation 0.01 in - - ()
Sea Level Pressure  
Sea Level Pressure 30.18 in    
Wind  
Wind Speed 0 mph (WNW)    
Max Wind Speed 6 mph    
Max Gust Speed -    
Visibility 6 miles    
Events Fog    
Averages and records for this station are not official NWS values.
T = Trace of Precipitation, MM = Missing Value Source: NWS Daily Summary

Daily Weather History Graph

Daily Weather History Graph

Search for Another Location

Airport or City:

Trip Planner

Search our weather history database for the weather conditions in past years. The results will help you decide how hot, cold, wet, or windy it might be!

Date:

Astronomy

Oct. 08, 2012 Rise Set
Actual Time 6:56 AM EDT 6:19 PM EDT
Civil Twilight 6:28 AM EDT 6:47 PM EDT
Nautical Twilight 5:55 AM EDT 7:20 PM EDT
Astronomical Twilight 5:23 AM EDT 7:52 PM EDT
Moon No Moon Rise 2:13 PM EDT (10/8)
Length of Visible Light 12h 19m
Length of Day
11h 23m
Waning Gibbous, 46% of the Moon is Illuminated
Oct 8
Waning Gibbous
Oct 15
New
Oct 21
First Quarter
Oct 29
Full
Nov 6
Last Quarter

Hourly Weather History & Observations

Time (EDT) Temp. Windchill Dew Point Humidity Pressure Visibility Wind Dir Wind Speed Gust Speed Precip Events Conditions
12:53 AM 45.0 °F - 43.0 °F 93% 30.10 in 10.0 mi Calm Calm - 0.00 in   Overcast
1:30 AM 44.6 °F - 42.8 °F 93% 30.09 in 10.0 mi Calm Calm - N/A   Mostly Cloudy
1:42 AM 44.6 °F - 42.8 °F 93% 30.09 in 10.0 mi Calm Calm - N/A   Scattered Clouds
1:53 AM 43.0 °F - 41.0 °F 93% 30.10 in 5.0 mi Calm Calm - N/A   Partly Cloudy
2:05 AM 42.8 °F - 39.2 °F 87% 30.09 in 2.5 mi Calm Calm - N/A   Clear
2:13 AM 42.8 °F - 39.2 °F 87% 30.09 in 6.0 mi Calm Calm - N/A   Clear
2:17 AM 42.8 °F - 39.2 °F 87% 30.09 in 1.5 mi Calm Calm - N/A   Clear
2:26 AM 42.8 °F - 39.2 °F 87% 30.09 in 0.5 mi Calm Calm - 0.01 in Fog Fog
2:33 AM 42.8 °F - 39.2 °F 87% 30.09 in 0.5 mi Calm Calm - 0.01 in Fog Fog
2:38 AM 41.0 °F - 39.2 °F 93% 30.09 in 0.2 mi Calm Calm - 0.01 in Fog Fog
2:53 AM 39.9 °F - 39.0 °F 97% 30.10 in 0.2 mi Calm Calm - 0.01 in Fog Fog
3:10 AM 41.0 °F - 39.2 °F 93% 30.09 in 0.2 mi Calm Calm - N/A Fog Fog
3:43 AM 39.2 °F - 37.4 °F 93% 30.10 in 0.5 mi Calm Calm - N/A Fog Fog
3:53 AM 41.0 °F 38.0 °F 39.0 °F 93% 30.12 in 1.5 mi NNW 4.6 mph - N/A   Mostly Cloudy
3:56 AM 41.0 °F 39.0 °F 39.2 °F 93% 30.11 in 5.0 mi Variable 3.5 mph - N/A   Mostly Cloudy
4:03 AM 39.2 °F - 37.4 °F 93% 30.11 in 10.0 mi Calm Calm - N/A   Scattered Clouds
4:53 AM 39.9 °F - 37.9 °F 93% 30.13 in 10.0 mi Calm Calm - N/A   Clear
5:43 AM 39.2 °F - 37.4 °F 93% 30.12 in 1.8 mi Calm Calm - N/A   Clear
5:47 AM 37.4 °F - 37.4 °F 100% 30.12 in 1.0 mi Calm Calm - N/A   Mist
5:53 AM 37.0 °F - 35.1 °F 93% 30.14 in 0.8 mi Calm Calm - N/A   Mist
5:56 AM 37.4 °F - 35.6 °F 93% 30.12 in 1.5 mi Calm Calm - N/A   Partly Cloudy
5:59 AM 37.4 °F - 35.6 °F 93% 30.12 in 3.0 mi Calm Calm - N/A   Partly Cloudy
6:24 AM 37.4 °F - 35.6 °F 93% 30.14 in 1.8 mi Calm Calm - N/A   Clear
6:32 AM 37.4 °F - 35.6 °F 93% 30.14 in 2.0 mi Calm Calm - N/A   Partly Cloudy
6:51 AM 35.6 °F 32.8 °F 33.8 °F 93% 30.16 in 1.5 mi SW 3.5 mph - N/A   Scattered Clouds
6:53 AM 36.0 °F 33.3 °F 34.0 °F 93% 30.18 in 1.2 mi SW 3.5 mph - N/A   Mostly Cloudy
6:57 AM 35.6 °F - 35.6 °F 100% 30.16 in 0.2 mi Calm Calm - N/A Fog Fog
7:31 AM 39.2 °F - 37.4 °F 93% 30.18 in 0.8 mi Calm Calm - N/A   Overcast
7:42 AM 39.2 °F - 37.4 °F 93% 30.19 in 1.0 mi Calm Calm - N/A   Overcast
7:49 AM 39.2 °F - 37.4 °F 93% 30.19 in 2.0 mi Calm Calm - N/A   Overcast
7:50 AM 39.9 °F - 39.0 °F 97% 30.21 in 2.5 mi Calm Calm - N/A   Overcast
7:59 AM 39.2 °F - 39.2 °F 100% 30.20 in 5.0 mi Calm Calm - N/A   Overcast
8:53 AM 43.0 °F 41.3 °F 41.0 °F 93% 30.24 in 10.0 mi South 3.5 mph - N/A   Overcast
9:53 AM 46.9 °F - 43.0 °F 86% 30.24 in 10.0 mi Calm Calm - N/A   Scattered Clouds
10:53 AM 51.1 °F - 39.0 °F 63% 30.26 in 10.0 mi Calm Calm - N/A   Mostly Cloudy
11:53 AM 53.1 °F - 39.9 °F 61% 30.26 in 10.0 mi Calm Calm - N/A   Mostly Cloudy
12:53 PM 54.0 °F - 39.0 °F 57% 30.25 in 10.0 mi North 4.6 mph - N/A   Mostly Cloudy
1:53 PM 54.0 °F - 39.0 °F 57% 30.25 in 10.0 mi Calm Calm - N/A   Mostly Cloudy
2:53 PM 55.0 °F - 39.0 °F 55% 30.26 in 10.0 mi Calm Calm - N/A   Mostly Cloudy
3:53 PM 54.0 °F - 39.0 °F 57% 30.25 in 10.0 mi Variable 3.5 mph - N/A   Mostly Cloudy
3:56 PM 53.6 °F - 39.2 °F 58% 30.24 in 10.0 mi Calm Calm - N/A   Mostly Cloudy
4:53 PM 54.0 °F - 39.0 °F 57% 30.26 in 10.0 mi Calm Calm - N/A   Scattered Clouds
5:53 PM 52.0 °F - 44.1 °F 74% 30.28 in 10.0 mi Calm Calm - N/A   Clear
6:53 PM 48.9 °F - 44.1 °F 83% 30.30 in 10.0 mi Calm Calm - N/A   Clear
7:53 PM 48.0 °F - 44.1 °F 86% 30.29 in 10.0 mi Calm Calm - N/A   Clear
8:53 PM 46.0 °F - 43.0 °F 89% 30.29 in 10.0 mi Calm Calm - N/A   Clear
9:53 PM 44.1 °F - 42.1 °F 93% 30.30 in 10.0 mi Calm Calm - N/A   Clear
10:53 PM 43.0 °F 39.5 °F 39.9 °F 89% 30.30 in 10.0 mi North 5.8 mph - N/A   Clear
11:53 PM 44.1 °F - 41.0 °F 89% 30.30 in 10.0 mi Calm Calm - N/A   Overcast